Showing default

BEIDOU IGSO-6, 41434

Orbit data source: Space-Track

BEIDOU IGSO-6, 41434 is a payload satellite owned by CNSA (CN) that was launched on Tue, 29 Mar 2016 UTC via a CHANG ZHENG 3A launch vehicle from the Xichang Space Center, China (XSC). Payload-class satellites include a variety of spacecraft equipped with specific instruments for various scientific and technological missions. These include communications satellites like Starlink; space stations such as the ISS; scientific satellites like the Hubble; Earth observation satellites from companies like Planet Labs, Umbra, and HawkEye 360; GPS; miniature CubeSats for education and research; and military/defense satellites.

Not visible in the next 10 days
Identifier
41434, 2016-021A
Orbit
Active
Country
Flag of CNCN / PRC
Related business
Manufacturer
CAST
Mission
Operational Defense Navigation
Bus & Motor
DFH-3, FY-25
Mass
2,300 kg wet, 1,300 kg dry
Launch date (UTC)
2016-03-29 (10 years ago)
Launch vehicle
CHANG ZHENG 3A
Launch site
Xichang Space Center, China (XSC)
Object type
Payload
Rocket body
Debris
Shape & HBR
Box + 2 Pan, 9.0 m
Radar Cross Section
13.998 m², Large (>1 m²)

Expand to show TLE details & history
Last TLE update: 2 days ago

TLE from 2 days ago
0 BEIDOU IGSO-6
1 41434U 16021A   25345.64528490 -.00000162  00000-0  00000-0 0  9993
2 41434  59.9644  39.9082 0060862 229.9753 135.9177  1.00293077 35601
Epoch: 2025-12-11T15:29Z
TLE epoch observation values (Epoch: 2025-12-11T15:29:12.615Z)
Latitude
5.46603°
Longitude
90.20345°
Altitude
35,965.91 km
Speed
3.061 km/s
True Right ascension
02h 52m 25s
True Declination
5° 27' 38"
Sunlit
Object was in daylight at epoch
Visualization orbit readout
Latitude
Unknown
Longitude
Unknown
Altitude
Unknown
Speed
Unknown
Apparent Right ascension
Unknown
Apparent Declination
Unknown
Sunlit
N/A
Visualization observer readout
Local Sidereal Time
05:23:53
Azimuth
Unknown
Elevation
Unknown
Doppler factor
Unknown
Orbital elements
Apogee altitude
36,037.109 km
Perigee altitude
35,523.937 km
Semi-major axis
42,158.66 km
Eccentricity
0.00609
Inclination
59.9644°
RAAN
39.9082°
Arg. of periapsis
229.9753°
True anomaly
136.40025°
Mean anomaly
135.9177°
Eccentric anomaly
136.15924°
Mean motion
0.25073 °/min
Orbital period
1,435.79 mins
BSTAR
0
Loading maneuver chart data...
Computing Atmospheric mass density...
Loading historical data...
Loading historical data...
Loading historical data...
Loading historical data...
Loading historical data...
Loading historical data...
Loading historical data...
Other satellites on launch #21 in the year 2016 (2016-03-29 UTC)

Documentation

Showing up to 5 results
|